PPR Request

Prior permission is required for take-offs and landings. Make a prior permission request here on day of flight.

Traffic Circuit Slot

Make your PPR request first, then the TC slot reservation. Price 5 € / 15 minute slot.

Aerodrome Info

Updated 23 JAN 2020 21:00 LT

  • Runway is dry, on taxiways and aprons snow patches and frozen water ponds
  • Recommended runway: RWY
  • NOTE: Cranes 0.5 - 1.5 NM W FM THR RWY36

Contact duty officer at +358 20 7545 129 for more information.

Remember to close your flight plan: ACC tel. +358 3 286 5172.

Weather


Helsinki Malmi lentokenttä
AWS ILHF 232220Z AUTO 25007KT CAVOK 02/M01 Q1002=



Helsinki-Malmin lentoasema

Welcome to Helsinki-Malmi Airport

Helsinki-Malmi is the busiest general aviation airport in Finland, operated by Malmi Airfield Association.

Behind the association are organizations, companies and persons operating at the Malmi Airport.

The Association’s work is funded by membership fees and season card fees. The Association needs both full members and supporting members to finance its activity.

Be involved in continuing Malmi’s aviation activities and join as a member!